Total_Precipitation_Accumulation
1.23 1.19 1.13 1.04 0.99 1.03 1.13 1.29 1.51 1.44 1.12 0.91 0.88 0.86 0.89 0.89 0.95 0.88 0.78 0.94 0.99 0.99 1.04 1.08 1.06 1.04 1.08 1.21 1.45 1.70 1.86 1.91 1.93 1.99 2.05 2.06 2.14 2.30
1.18 1.15 1.11 1.05 1.03 1.04 1.09 1.18 1.31 1.44 1.30 0.95 0.82 0.77 0.80 0.82 0.91 0.81 0.75 0.92 0.92 0.92 0.93 0.93 0.94 0.98 1.02 1.10 1.23 1.40 1.63 1.78 1.80 1.82 1.89 1.96 2.05 2.16
1.13 1.11 1.08 1.03 1.04 1.02 1.05 1.10 1.15 1.23 1.24 0.97 0.80 0.77 0.79 0.78 0.81 0.79 0.75 0.72 0.71 0.81 0.82 0.82 0.83 0.89 0.98 1.05 1.11 1.21 1.40 1.55 1.69 1.76 1.86 1.95 2.00 2.01
1.05 1.08 1.09 1.09 1.12 1.13 1.13 1.12 1.09 1.09 1.11 1.02 0.83 0.73 0.68 0.65 0.65 0.68 0.69 0.69 0.64 0.75 0.77 0.76 0.80 0.85 0.94 0.97 1.00 1.07 1.18 1.27 1.40 1.53 1.60 1.71 1.83 1.92
0.95 1.00 1.03 1.09 1.15 1.16 1.14 1.10 1.05 1.01 1.00 1.01 0.87 0.73 0.67 0.62 0.64 0.65 0.66 0.65 0.62 0.68 0.72 0.72 0.75 0.80 0.85 0.94 0.98 0.98 1.00 1.07 1.15 1.27 1.37 1.45 1.54 1.67
0.94 0.96 0.97 0.98 0.98 0.98 0.97 0.95 0.96 0.97 0.96 0.98 0.93 0.80 0.71 0.66 0.69 0.76 0.74 0.65 0.61 0.56 0.62 0.62 0.65 0.67 0.70 0.77 0.85 0.87 0.89 0.96 1.06 1.16 1.31 1.37 1.40 1.52
0.98 0.97 0.93 0.90 0.84 0.83 0.83 0.82 0.82 0.89 0.97 1.01 0.95 0.84 0.74 0.70 0.69 0.68 0.73 0.70 0.65 0.58 0.55 0.54 0.54 0.53 0.55 0.62 0.72 0.85 0.95 1.07 1.21 1.30 1.42 1.54 1.61 1.67
0.88 0.85 0.83 0.83 0.80 0.82 0.82 0.81 0.86 0.95 1.06 1.05 0.93 0.77 0.61 0.56 0.61 0.72 0.83 0.88 0.78 0.57 0.56 0.58 0.58 0.60 0.57 0.60 0.75 0.87 1.00 1.13 1.29 1.37 1.44 1.50 1.58 1.69
0.80 0.74 0.71 0.66 0.68 0.63 0.70 0.76 0.78 0.84 0.88 0.88 0.82 0.67 0.60 0.59 0.75 0.92 0.91 0.87 0.71 0.53 0.57 0.64 0.61 0.64 0.64 0.70 0.83 0.87 1.00 1.13 1.27 1.36 1.44 1.47 1.52 1.62
0.67 0.62 0.58 0.57 0.57 0.61 0.67 0.74 0.65 0.60 0.61 0.58 0.59 0.63 0.64 0.64 0.74 0.90 0.91 0.88 0.73 0.62 0.61 0.71 0.63 0.65 0.64 0.69 0.82 0.82 0.88 1.02 1.18 1.32 1.43 1.46 1.49 1.57
0.54 0.56 0.58 0.54 0.61 0.75 0.77 0.75 0.62 0.51 0.53 0.59 0.63 0.63 0.65 0.64 0.67 0.88 1.05 1.11 0.95 0.69 0.60 0.63 0.57 0.60 0.66 0.71 0.79 0.87 0.88 0.96 1.10 1.23 1.30 1.39 1.49 1.55
0.49 0.53 0.60 0.59 0.67 0.78 0.71 0.69 0.62 0.53 0.52 0.50 0.48 0.49 0.47 0.51 0.62 0.75 1.11 1.43 1.16 0.83 0.55 0.68 0.70 0.77 0.96 0.73 0.73 0.80 0.84 0.95 1.07 1.13 1.16 1.26 1.36 1.37
0.49 0.48 0.50 0.68 0.76 0.75 0.67 0.57 0.61 0.66 0.57 0.47 0.45 0.44 0.43 0.45 0.48 0.52 0.76 1.34 1.56 1.07 0.56 0.99 1.15 0.88 1.05 0.83 0.71 0.79 0.92 1.08 1.16 1.17 1.18 1.20 1.25 1.33
0.46 0.42 0.49 0.68 0.68 0.62 0.56 0.59 0.70 0.67 0.54 0.53 0.52 0.50 0.47 0.43 0.43 0.45 0.52 0.69 0.99 1.09 0.78 1.18 1.62 1.22 1.29 1.07 0.84 0.87 0.95 1.18 1.45 1.51 1.45 1.41 1.33 1.33
0.54 0.61 0.64 0.61 0.54 0.51 0.54 0.59 0.58 0.54 0.60 0.68 0.63 0.53 0.48 0.46 0.47 0.50 0.52 0.57 0.65 0.69 0.74 0.91 1.29 1.34 1.50 1.47 1.16 0.99 1.11 1.26 1.58 1.86 1.77 1.55 1.35 1.28
0.64 0.67 0.61 0.53 0.48 0.48 0.52 0.52 0.50 0.52 0.63 0.72 0.66 0.55 0.50 0.54 0.58 0.65 0.75 0.76 0.84 0.76 0.74 0.80 0.98 1.31 1.43 1.22 1.30 1.23 1.27 1.63 1.82 2.01 1.88 1.63 1.40 1.25
0.72 0.58 0.50 0.47 0.47 0.45 0.44 0.44 0.47 0.53 0.60 0.61 0.66 0.65 0.60 0.59 0.61 0.70 0.90 1.02 1.05 0.90 0.80 0.75 0.77 0.90 1.09 1.20 1.26 1.18 1.31 1.55 1.78 1.93 1.74 1.59 1.52 1.40
0.67 0.56 0.51 0.47 0.45 0.42 0.41 0.44 0.45 0.50 0.58 0.68 0.71 0.71 0.72 0.72 0.71 0.73 0.91 1.09 1.08 0.95 0.87 0.79 0.79 0.86 0.88 0.92 1.13 1.33 1.37 1.55 1.67 1.61 1.33 1.35 1.46 1.35
0.55 0.54 0.52 0.51 0.49 0.46 0.47 0.50 0.50 0.49 0.60 0.75 0.81 0.81 0.82 0.79 0.81 0.87 0.94 1.01 0.98 0.87 0.75 0.69 0.82 1.13 1.15 0.86 0.74 1.07 1.44 1.52 1.39 1.30 1.14 1.16 1.40 1.34
0.45 0.49 0.50 0.50 0.52 0.55 0.57 0.60 0.61 0.61 0.67 0.76 0.80 0.84 0.91 0.96 0.94 0.93 0.97 1.00 0.94 0.76 0.60 0.50 0.62 1.04 1.45 1.30 1.04 0.98 1.11 1.32 1.38 1.38 1.17 1.04 1.13 1.14
0.44 0.45 0.45 0.49 0.55 0.60 0.63 0.66 0.71 0.75 0.80 0.91 0.91 0.91 0.97 1.06 1.01 0.92 0.91 0.86 0.79 0.70 0.60 0.47 0.46 0.68 1.02 1.14 0.99 0.82 0.92 1.04 1.21 1.54 1.48 1.30 1.10 0.95
0.45 0.46 0.46 0.48 0.56 0.62 0.65 0.69 0.75 0.77 0.83 0.92 0.95 0.97 1.02 1.09 1.06 0.91 0.81 0.78 0.71 0.66 0.61 0.49 0.44 0.54 0.75 1.00 0.88 0.69 0.71 0.74 0.77 0.84 1.10 1.43 1.78 1.84
0.49 0.50 0.50 0.53 0.59 0.64 0.69 0.70 0.75 0.78 0.85 0.96 1.01 0.99 0.99 0.95 0.84 0.81 0.78 0.78 0.79 0.72 0.66 0.61 0.54 0.56 0.62 0.70 0.75 0.65 0.59 0.58 0.58 0.64 0.84 0.91 1.05 1.30